Regional Weather Roundup
Issued by NWS

Home | Current Version | Previous Version | Graphics & Text | Print | Product List | Glossary On
Versions: 1 2 3 4 5 6 7 8 9 10 11 12 13 14 15 16 17 18 19 20 21 22 23 24 25 26 27 28 29 30 31 32 33 34 35 36 37 38 39 40 41 42 43 44 45 46 47 48 49 50
000
ASUS43 KMPX 140601
RWRMN
WEATHER ROUNDUP FOR MINNESOTA
NATIONAL WEATHER SERVICE TWIN CITIES/CHANHASSEN MN
100 AM CDT MON JUL 14 2014


NOTE: "FAIR" INDICATES FEW OR NO CLOUDS BELOW 12,000 FEET WITH NO
SIGNIFICANT WEATHER AND/OR OBSTRUCTIONS TO VISIBILITY. N/A MEANS
CURRENT SKY AND/OR WEATHER CONDITIONS ARE NOT AVAILABLE.

MNZ060>063-068>070-140700-
   Twin Cities Metro

CITY           SKY/WX    TMP DP  RH WIND       PRES   REMARKS
TWIN CITIES    MOCLDY    64  50  60 NW8       29.90S
6HR MIN TEMP:  63; 6HR MAX TEMP:  75;

ST PAUL        CLOUDY    65  50  58 W9        29.89S
CRYSTAL        CLOUDY    66  49  54 W6        29.89S
BLAINE         CLOUDY    64  54  68 W6        29.90S
LAKEVILLE      CLEAR     55  50  82 W3        29.91S
EDEN PRAIRIE   CLEAR     64  49  57 NW6       29.89F
6HR MIN TEMP:  60; 6HR MAX TEMP:  76;

SOUTH ST PAUL  CLEAR     64  51  63 W6        29.89F
LAKE ELMO      CLOUDY    59  54  82 NW5       29.90S
$$
MNZ001>005-007-008-013>017-022>024-027-028-140700-
   Northwest Minnesota

CITY           SKY/WX    TMP DP  RH WIND       PRES   REMARKS
BEMIDJI        LGT RAIN  51  49  93 NW17G25   29.89R
HALLOCK        MOCLDY    52  48  87 N15G23    29.95R
ROSEAU         MOCLDY    48  45  87 NW12      29.90R
WARROAD        MOCLDY    48  45  87 NW12G17   29.89R
THIEF RVR FALL CLOUDY    52  48  87 NW10      29.93S
CROOKSTON      LGT RAIN  52  50  93 NW15      29.96S
FOSSTON        DRIZZLE   50  48  93 NW10      29.93R
MOORHEAD       CLOUDY    63  46  55 NW14      29.96S
PARK RAPIDS    CLOUDY    57  47  69 NW12      29.90F
$$
MNZ006-009>011-018-025>026-140700-
   North Central Minnesota

CITY           SKY/WX    TMP DP  RH WIND       PRES   REMARKS
BAUDETTE       CLOUDY    50  49  96 NW7       29.84S
FLAG ISLAND    CLOUDY    52  48  87 NW18      29.84R
INTL FALLS     LGT RAIN  50  49  96 W6        29.80S
6HR MIN TEMP:  50; 6HR MAX TEMP:  57; 6HR PCP:  0.04;

WASKISH        LGT RAIN  52  48  87 W16G22    29.86S
BIG FORK       CLOUDY    52  48  87 W3        29.85S
LONGVILLE      MOCLDY    54  50  87 W6        29.88F
GRAND RAPIDS   PTCLDY    54  48  82 SW6       29.85F
CRANE LAKE     CLOUDY    50  48  93 CALM      29.80F
ORR            DRIZZLE   52  46  82 W9        29.79F
COOK           CLOUDY    52  50  93 W6        29.82F
$$
MNZ012-019>021-037-140700-
   Northeast Minnesota

CITY           SKY/WX    TMP DP  RH WIND       PRES   REMARKS
DULUTH         CLEAR     50  47  89 W7        29.85F
6HR MIN TEMP:  50; 6HR MAX TEMP:  66; 6HR PCP: TRACE;

ELY            CLOUDY    52  48  87 SW6       29.81F
HIBBING        PTCLDY    52  48  86 W3        29.83F
EVELETH        PTCLDY    50  46  87 SW6       29.84F
DULUTH HARBOR  MOCLDY    59  52  77 W8        29.86S
TWO HARBORS    PTCLDY    50  45  81 W5        29.82F
SILVER BAY     PTCLDY    48  48 100 CALM      29.81F
GRAND MARAIS     N/A     45  44  97 W3        29.80S
G MARAIS ARPRT MOCLDY    46  45  93 W3        29.81F
$$
MNZ029>031-032-039>041-046>048-054>057-064-140700-
   West Central Minnesota

CITY           SKY/WX    TMP DP  RH WIND       PRES   REMARKS
FERGUS FALLS   CLOUDY    61  45  55 NW12G17   29.96R
WHEATON        CLOUDY    61  50  67 W5        29.99S
MORRIS         CLOUDY    57  52  82 W6        29.95F
ALEXANDRIA     CLOUDY    62  49  62 NW10      29.95S
WADENA         CLOUDY    55  48  76 CALM      29.92S
GLENWOOD       PTCLDY    57  50  77 W7        29.95S
APPLETON       CLEAR     55  48  76 NW5       29.96S
BENSON         MOCLDY    54  48  82 N3        29.96S
ORTONVILLE     CLEAR     61  48  63 NW5       29.97S
MADISON        CLEAR     57  52  82 NW5       29.98R
WILLMAR        FAIR      59  48  67 W6        29.96S
$$
MNZ033>034-036-042>043-049>051-058-059-140700-
   Central Minnesota

CITY           SKY/WX    TMP DP  RH WIND       PRES   REMARKS
ST CLOUD       PTCLDY    60  49  66 NW5       29.91S
6HR MIN TEMP:  60; 6HR MAX TEMP:  75;

SAUK CENTRE    MOCLDY    55  49  80 CALM      29.93F
PAYNESVILLE    MOCLDY    51  49  92 SW6       29.94S
AITKIN         PTCLDY    55  50  82 CALM      29.88F
PINE RIVER     CLOUDY    55  48  76 CALM      29.93F
BRAINERD       MOCLDY    62  48  60 NW6       29.91F
STAPLES        PTCLDY    54  48  82 W5        29.92S
LONG PRAIRIE   CLOUDY    59  48  67 CALM      29.93F
LITTLE FALLS   CLOUDY    59  48  67 CALM      29.91F
LITCHFIELD     PTCLDY    63  48  59 W6        29.94S
BUFFALO        MOCLDY    63  48  59 W5        29.92F
MAPLE LAKE     PTCLDY    60  52  75 CALM      29.93S
$$
MNZ037-044-045-052-053-140700-
   East Central Minnesota

CITY           SKY/WX    TMP DP  RH WIND       PRES   REMARKS
PRINCETON      PTCLDY    59  52  77 W5        29.91S
MORA           PTCLDY    55  46  71 CALM      29.91S
CAMBRIDGE      PTCLDY    63  48  59 NW3       29.88S
RUSH CITY      PTCLDY    59  49  68 NW6       29.89S
MOOSE LAKE     CLOUDY    52  50  93 SW3       29.86F
HINCKLEY       FAIR      55  50  82 CALM      29.89F
CLOQUET        CLEAR     52  48  87 W3        29.87S
MCGREGOR       PTCLDY    54  52  94 SW3       29.88F
$$
MNZ071>073-080-081-089-090-097-098-140700-
   Southwest Minnesota

CITY           SKY/WX    TMP DP  RH WIND       PRES   REMARKS
MONTEVIDEO     CLEAR     59  50  72 NW7       29.97S
GRANITE FALLS  CLEAR     56  51  84 W6        29.98S
CANBY          CLEAR     57  50  77 W6        29.99S
MARSHALL       CLEAR     57  46  67 W9        29.96S
REDWOOD FALLS  CLEAR     60  51  72 W9        29.94S
OLIVIA         CLEAR     57  50  77 NW6       29.95R
PIPESTONE      CLEAR     61  48  63 NW6       30.00S
WINDOM         CLEAR     55  50  82 W6        29.97S
WORTHINGTON    CLEAR     55  48  76 W6        30.00S
JACKSON        CLEAR     55  50  82 W3        29.98S
TRACY          CLEAR     60  49  66 W7        29.97F
SLAYTON        CLEAR     56  48  74 CALM      30.00S
$$
MNZ065>067-074>077-082>085-091>093-140700-
   South Central Minnesota

CITY           SKY/WX    TMP DP  RH WIND       PRES   REMARKS
MANKATO        CLEAR     61  46  59 W6        29.92F
NEW ULM        CLEAR     55  54  94 W6        29.94S
ST JAMES       CLEAR     57  52  82 SW5       29.95F
FAIRMONT       CLEAR     61  48  63 W3        29.95F
GLENCOE        CLEAR     61  49  63 W7        29.92S
FARIBAULT      CLEAR     61  48  63 SW6       29.92F
OWATONNA       CLEAR     55  50  82 CALM      29.92F
WASECA         CLEAR     54  46  76 CALM      29.94F
ALBERT LEA     CLEAR     55  54  94 CALM      29.94F
$$
MNZ078>079-086>088-094>096-140700-
   Southeast Minnesota

CITY           SKY/WX    TMP DP  RH WIND       PRES   REMARKS
ROCHESTER      CLEAR     57  50  77 W8        29.93F
6HR MIN TEMP:  57; 6HR MAX TEMP:  73;

RED WING       CLEAR     55  54  94 CALM      29.88F
STANTON        CLEAR     56  50  82 SW3       29.90S
DODGE CENTER   PTCLDY    55  52  88 SW7       29.93S
WINONA         CLEAR     59  55  88 NW5       29.90F
AUSTIN         CLEAR     61  48  63 W1        29.94S
PRESTON        CLEAR     61  51  70 W6        29.93F
$$
ABBREVIATIONS USED IN REMARKS
   TC - TEMPERATURES IN CELSIUS
  WCI - WIND CHILL INDEX
   HX - HEAT INDEX
  VSB - VISIBILITY
$$



USA.gov is the U.S. government's official web portal to all federal, state and local government web resources and services.